Retour au catalogue

PLEIADES 1

ActifScienceSSO
NORAD 38012·PAYLOAD·🇫🇷 France

Lancé Dec 17, 2011 depuis Guiana Space Centre

Loading…

Prochains Passages (prochaines 24 heures)

TLE

FraisSource: Space-Track

Époque: Sep 14, 2026, 22:25 UTC

1 38012U 11076F   26257.93439674  .00000027  00000-0  15682-4 0  9991
2 38012  98.1914 331.8001 0001159 101.1310   8.9479 14.58571857785072

Suivez PLEIADES 1 en temps réel avec AllMySat

Download on the App Store